Location: Cheching
(60.0667°N, 164.2167°W)
Time: 00:42:02
(UTC+00:00)

DX 1 - Pass Details

Date: 29 January 2021
Orbit: 618 x 631 km, 98.5° (Epoch: 07 March)

Event Time Altitude Azimuth Distance (km) Brightness Sun altitude
Rises 17:29:53 0° 194° (SSW) 2,906 ? -12.9°
Reaches altitude 10° 17:32:19 10° 205° (SSW) 2,002 ? -12.6°
Maximum altitude 17:36:06 28° 266° (W) 1,171 ? -12.1°
Drops below altitude 10° 17:39:54 10° 326° (NNW) 2,008 ? -11.7°
Enters shadow 17:40:32 - 330° (NNW) 2,233 ? -11.6°
